Port Huron, MI

1:01 AM EST on November 19, 2017 (GMT -0500)
Saint Clair County International

Weather History for KPHN - April, 2013

Change the Weather History Date:

Monday, April 8, 2013

  Actual Average (KMTC) Record (KMTC)
Temperature  
Mean Temperature 40 °F -  
Max Temperature 53 °F 49 °F 78 °F (2001)
Min Temperature 26 °F 32 °F 13 °F (1982)
Degree Days  
Heating Degree Days 26    
Moisture  
Dew Point 39 °F    
Average Humidity 89    
Maximum Humidity 100    
Minimum Humidity 62    
Precipitation  
Precipitation 0.00 in - - ()
Sea Level Pressure  
Sea Level Pressure 29.91 in    
Wind  
Wind Speed 4 mph (SSE)    
Max Wind Speed 14 mph    
Max Gust Speed 23 mph    
Visibility 8 miles    
Events Rain    
Averages and records for this station are not official NWS values.
T = Trace of Precipitation, MM = Missing Value Source: NWS Daily Summary

Daily Weather History Graph

Daily Weather History Graph

Search for Another Location

Airport or City:

Trip Planner

Search our weather history database for the weather conditions in past years. The results will help you decide how hot, cold, wet, or windy it might be!

Date:

Astronomy

Apr. 08, 2013 Rise Set
Actual Time 6:59 AM EDT 8:04 PM EDT
Civil Twilight 6:30 AM EDT 8:33 PM EDT
Nautical Twilight 5:56 AM EDT 9:08 PM EDT
Astronomical Twilight 5:19 AM EDT 9:45 PM EDT
Moon 5:51 AM EDT (4/8) 6:36 PM EDT (4/8)
Length of Visible Light 14h 03m
Length of Day
13h 05m
Waning Crescent, 3% of the Moon is Illuminated
Apr 8
Waning Crescent
Apr 10
New
Apr 18
First Quarter
Apr 25
Full
May 2
Last Quarter

Hourly Weather History & Observations

Time (EDT) Temp. Windchill Dew Point Humidity Pressure Visibility Wind Dir Wind Speed Gust Speed Precip Events Conditions
12:17 AM 33.8 °F - 32.0 °F 93% 30.04 in 10.0 mi Calm Calm - N/A   Clear
12:37 AM 33.8 °F - 32.0 °F 93% 30.05 in 10.0 mi Calm Calm - N/A   Clear
12:57 AM 33.8 °F - 32.0 °F 93% 30.06 in 10.0 mi Calm Calm - N/A   Clear
1:17 AM 33.8 °F - 30.2 °F 87% 30.07 in 10.0 mi Calm Calm - N/A   Clear
1:37 AM 32.0 °F - 30.2 °F 93% 30.07 in 10.0 mi Calm Calm - N/A   Clear
1:57 AM 30.2 °F - 30.2 °F 100% 30.06 in 10.0 mi Calm Calm - N/A   Clear
2:17 AM 30.2 °F - 30.2 °F 100% 30.06 in 10.0 mi Calm Calm - N/A   Clear
2:37 AM 30.2 °F - 28.4 °F 93% 30.05 in 10.0 mi Calm Calm - N/A   Clear
2:57 AM 30.2 °F - 30.2 °F 100% 30.05 in 10.0 mi Calm Calm - N/A   Clear
3:17 AM 32.0 °F - 30.2 °F 93% 30.05 in 10.0 mi Calm Calm - N/A   Clear
3:37 AM 28.4 °F - 28.4 °F 100% 30.04 in 7.0 mi Calm Calm - N/A   Clear
3:57 AM 28.4 °F - 28.4 °F 100% 30.04 in 10.0 mi Calm Calm - N/A   Clear
4:17 AM 30.2 °F - 30.2 °F 100% 30.04 in 10.0 mi Calm Calm - N/A   Clear
4:37 AM 30.2 °F - 30.2 °F 100% 30.04 in 7.0 mi Calm Calm - N/A   Clear
4:57 AM 28.4 °F - 28.4 °F 100% 30.04 in 7.0 mi Calm Calm - N/A   Clear
5:17 AM 28.4 °F - 28.4 °F 100% 30.04 in 7.0 mi Calm Calm - N/A   Clear
5:37 AM 28.4 °F - 28.4 °F 100% 30.04 in 7.0 mi Calm Calm - N/A   Clear
5:57 AM 26.6 °F - 26.6 °F 100% 30.04 in 5.0 mi Calm Calm - N/A   Clear
6:17 AM 28.4 °F - 28.4 °F 100% 30.03 in 7.0 mi Calm Calm - N/A   Clear
6:37 AM 30.2 °F - 30.2 °F 100% 30.03 in 10.0 mi Calm Calm - N/A   Clear
6:57 AM 28.4 °F - 28.4 °F 100% 30.02 in 10.0 mi Calm Calm - N/A   Clear
7:17 AM 30.2 °F - 30.2 °F 100% 30.02 in 10.0 mi Calm Calm - N/A   Clear
7:37 AM 32.0 °F - 32.0 °F 100% 30.03 in 10.0 mi Calm Calm - N/A   Clear
7:57 AM 33.8 °F 29.6 °F 33.8 °F 100% 30.02 in 10.0 mi East 4.6 mph - N/A   Clear
8:17 AM 35.6 °F 30.7 °F 33.8 °F 93% 30.02 in 10.0 mi ESE 5.8 mph - N/A   Clear
8:37 AM 37.4 °F 31.4 °F 33.8 °F 87% 30.01 in 10.0 mi East 8.1 mph - N/A   Clear
8:57 AM 37.4 °F 31.4 °F 35.6 °F 93% 30.00 in 10.0 mi ESE 8.1 mph - N/A   Clear
9:17 AM 39.2 °F 32.5 °F 35.6 °F 87% 29.99 in 10.0 mi ESE 10.4 mph - N/A   Clear
9:37 AM 41.0 °F 35.2 °F 35.6 °F 81% 29.99 in 5.0 mi ESE 9.2 mph - N/A   Haze
9:57 AM 42.8 °F 36.6 °F 37.4 °F 81% 30.00 in 10.0 mi SE 11.5 mph 18.4 mph N/A   Clear
10:17 AM 44.6 °F 38.4 °F 37.4 °F 76% 29.98 in 10.0 mi SE 12.7 mph 17.3 mph N/A   Clear
10:37 AM 48.2 °F - 37.4 °F 66% 29.98 in 10.0 mi SE 13.8 mph 19.6 mph N/A   Clear
10:57 AM 48.2 °F - 37.4 °F 66% 29.96 in 10.0 mi SE 10.4 mph 18.4 mph N/A   Clear
11:17 AM 50.0 °F - 37.4 °F 62% 29.95 in 10.0 mi SE 9.2 mph - N/A   Clear
11:37 AM 50.0 °F - 37.4 °F 62% 29.93 in 10.0 mi ESE 11.5 mph - N/A   Scattered Clouds
11:57 AM 51.8 °F - 39.2 °F 62% 29.91 in 10.0 mi SE 13.8 mph 21.9 mph N/A   Mostly Cloudy
12:17 PM 51.8 °F - 39.2 °F 62% 29.90 in 10.0 mi SE 12.7 mph 17.3 mph N/A   Mostly Cloudy
12:37 PM 51.8 °F - 39.2 °F 62% 29.89 in 10.0 mi ESE 9.2 mph - N/A Rain Light Rain
12:57 PM 50.0 °F - 41.0 °F 71% 29.88 in 7.0 mi SE 9.2 mph - N/A Rain Light Rain
1:17 PM 48.2 °F - 42.8 °F 82% 29.87 in 10.0 mi SE 6.9 mph - N/A Rain Light Rain
1:37 PM 48.2 °F - 42.8 °F 82% 29.86 in 10.0 mi SE 8.1 mph - N/A Rain Light Rain
1:57 PM 48.2 °F - 42.8 °F 82% 29.84 in 7.0 mi ESE 10.4 mph - N/A Rain Light Rain
2:17 PM 46.4 °F 41.5 °F 42.8 °F 87% 29.82 in 10.0 mi ESE 10.4 mph - N/A Rain Light Rain
2:37 PM 46.4 °F 43.5 °F 42.8 °F 87% 29.84 in 5.0 mi SSE 5.8 mph - N/A Rain Rain
2:57 PM 46.4 °F 43.5 °F 42.8 °F 87% 29.81 in 5.0 mi ESE 5.8 mph - N/A Rain Rain
3:17 PM 44.6 °F 40.2 °F 44.6 °F 100% 29.80 in 4.0 mi ESE 8.1 mph - N/A Rain Light Rain
3:37 PM 46.4 °F 41.5 °F 44.6 °F 93% 29.79 in 5.0 mi SE 10.4 mph - N/A Rain Light Rain
3:57 PM 46.4 °F 41.5 °F 44.6 °F 93% 29.77 in 4.0 mi SE 10.4 mph - N/A Rain Rain
4:17 PM 46.4 °F 42.9 °F 44.6 °F 93% 29.75 in 5.0 mi SE 6.9 mph 17.3 mph N/A   Light Drizzle
4:37 PM 46.4 °F 40.7 °F 44.6 °F 93% 29.73 in 5.0 mi SE 12.7 mph - N/A   Light Drizzle
4:57 PM 46.4 °F 41.5 °F 44.6 °F 93% 29.71 in 5.0 mi SE 10.4 mph - N/A   Overcast
5:17 PM 46.4 °F 41.9 °F 46.4 °F 100% 29.71 in 5.0 mi SSE 9.2 mph - N/A   Overcast
5:37 PM 48.2 °F - 46.4 °F 93% 29.70 in 5.0 mi SSE 9.2 mph - N/A Rain Light Rain
5:57 PM 48.2 °F - 48.2 °F 100% 29.71 in 5.0 mi SSE 6.9 mph 18.4 mph N/A   Overcast
6:17 PM 50.0 °F - 48.2 °F 94% 29.73 in 7.0 mi SW 3.5 mph - N/A   Overcast
6:37 PM 51.8 °F - 48.2 °F 88% 29.72 in 10.0 mi South 5.8 mph - N/A   Mostly Cloudy
6:57 PM 51.8 °F - 50.0 °F 94% 29.73 in 10.0 mi South 4.6 mph - N/A   Mostly Cloudy
7:17 PM 51.8 °F - 50.0 °F 94% 29.72 in 10.0 mi South 5.8 mph - N/A   Scattered Clouds
7:37 PM 51.8 °F - 50.0 °F 94% 29.73 in 10.0 mi South 3.5 mph - N/A   Clear
7:57 PM 51.8 °F - 50.0 °F 94% 29.74 in 10.0 mi Calm Calm - N/A   Clear
8:17 PM 50.0 °F - 50.0 °F 100% 29.75 in 7.0 mi Calm Calm - N/A   Scattered Clouds
8:37 PM 53.6 °F - 50.0 °F 88% 29.76 in 10.0 mi SW 4.6 mph - N/A   Clear
8:57 PM 53.6 °F - 50.0 °F 88% 29.77 in 10.0 mi SW 4.6 mph - N/A   Scattered Clouds
9:17 PM 53.6 °F - 48.2 °F 82% 29.79 in 10.0 mi West 6.9 mph - N/A   Scattered Clouds
9:37 PM 53.6 °F - 48.2 °F 82% 29.82 in 10.0 mi West 10.4 mph 20.7 mph N/A   Scattered Clouds
9:57 PM 51.8 °F - 48.2 °F 88% 29.84 in 10.0 mi West 12.7 mph 18.4 mph N/A   Mostly Cloudy
10:17 PM 50.0 °F - 46.4 °F 87% 29.86 in 10.0 mi West 10.4 mph 18.4 mph N/A   Overcast
10:37 PM 50.0 °F - 46.4 °F 87% 29.87 in 7.0 mi West 8.1 mph - N/A   Overcast
10:57 PM 48.2 °F - 46.4 °F 93% 29.88 in 10.0 mi West 4.6 mph 16.1 mph N/A   Overcast
11:17 PM 48.2 °F - 44.6 °F 87% 29.90 in 7.0 mi West 6.9 mph 12.7 mph N/A   Overcast
11:37 PM 48.2 °F - 44.6 °F 87% 29.92 in 7.0 mi West 8.1 mph 17.3 mph N/A   Overcast
11:57 PM 48.2 °F - 44.6 °F 87% 29.94 in 7.0 mi West 11.5 mph 23.0 mph N/A   Overcast